EJU482G LFMN-LFPO

Flight info

Callsign EJU482G
Flight time 1h 12m
Altitude 34000
Route BADOD DCT NEDRU DCT LTP DCT BULOL DCT IDAVO DCT ARDOL
Aircraft A320/M-SDE2E3FGHIJ1RWXYZ/LB1

Departure

Time 2026-05-07 16:06
Airport Nice-Côte d'Azur Airport (LFMN)

Arrival

Time 2026-05-07 17:18
Airport Paris-Orly Airport (LFPO)
Time Latitude Longitude Altitude Speed Heading
2026-05-07 15:46 43.65956 7.20726 21 ft 0 kts 281°
2026-05-07 15:58 43.65952 7.20752 23 ft 4 kts 281°
2026-05-07 15:58 43.65948 7.20784 22 ft 4 kts 276°
2026-05-07 15:58 43.65950 7.20815 22 ft 4 kts 221°
2026-05-07 15:58 43.65972 7.20824 23 ft 4 kts 173°
2026-05-07 15:59 43.65992 7.20820 23 ft 0 kts 171°
2026-05-07 16:00 43.65982 7.20823 23 ft 5 kts 168°
2026-05-07 16:01 43.65967 7.20900 21 ft 14 kts 65°
2026-05-07 16:01 43.66048 7.21018 21 ft 19 kts 45°
2026-05-07 16:01 43.66148 7.21155 21 ft 22 kts 45°
2026-05-07 16:01 43.66262 7.21312 21 ft 24 kts 44°
2026-05-07 16:02 43.66342 7.21425 21 ft 15 kts 49°
2026-05-07 16:02 43.66356 7.21556 22 ft 16 kts 131°
2026-05-07 16:02 43.66349 7.21691 21 ft 18 kts 41°
2026-05-07 16:02 43.66445 7.21822 21 ft 21 kts 45°
2026-05-07 16:03 43.66551 7.21975 21 ft 19 kts 60°
2026-05-07 16:03 43.66509 7.22087 21 ft 15 kts 132°
2026-05-07 16:03 43.66430 7.22193 22 ft 17 kts 135°
2026-05-07 16:03 43.66371 7.22335 21 ft 19 kts 82°
2026-05-07 16:04 43.66458 7.22479 21 ft 22 kts 45°
2026-05-07 16:04 43.66557 7.22615 21 ft 13 kts 44°
2026-05-07 16:04 43.66578 7.22719 21 ft 12 kts 107°
2026-05-07 16:04 43.66520 7.22780 22 ft 11 kts 199°
2026-05-07 16:05 43.66424 7.22658 21 ft 38 kts 225°
2026-05-07 16:05 43.66069 7.22168 24 ft 105 kts 225°
2026-05-07 16:05 43.65418 7.21277 27 ft 156 kts 225°
2026-05-07 16:05 43.64627 7.20190 585 ft 159 kts 223°
2026-05-07 16:06 43.63839 7.19097 1241 ft 161 kts 223°
2026-05-07 16:06 43.63039 7.17999 1865 ft 162 kts 224°
2026-05-07 16:06 43.62234 7.16897 2500 ft 163 kts 224°
2026-05-07 16:06 43.61416 7.15809 3104 ft 164 kts 216°
2026-05-07 16:07 43.60307 7.15232 3425 ft 184 kts 180°
2026-05-07 16:07 43.59033 7.15758 3671 ft 205 kts 150°
2026-05-07 16:07 43.57751 7.16800 4098 ft 219 kts 150°
2026-05-07 16:07 43.56398 7.17835 4805 ft 225 kts 159°
2026-05-07 16:08 43.54865 7.18233 5523 ft 227 kts 184°
2026-05-07 16:08 43.53312 7.17794 6275 ft 230 kts 196°
2026-05-07 16:08 43.51861 7.16877 6970 ft 234 kts 222°
2026-05-07 16:08 43.50953 7.15005 7473 ft 247 kts 255°
2026-05-07 16:09 43.50965 7.12555 7775 ft 271 kts 283°
2026-05-07 16:09 43.51449 7.09987 8415 ft 281 kts 285°
2026-05-07 16:09 43.51802 7.08263 8920 ft 285 kts 285°
2026-05-07 16:09 43.52927 7.04966 10000 ft 290 kts 311°
2026-05-07 16:10 43.53918 7.03730 10486 ft 293 kts 325°
2026-05-07 16:10 43.55754 7.02293 10791 ft 315 kts 331°
2026-05-07 16:10 43.57752 7.00854 11206 ft 331 kts 332°
2026-05-07 16:10 43.59822 6.99400 11921 ft 336 kts 332°
2026-05-07 16:11 43.61924 6.97948 12622 ft 341 kts 332°
2026-05-07 16:11 43.64053 6.96461 13353 ft 345 kts 331°
2026-05-07 16:11 43.66194 6.94941 14055 ft 348 kts 331°
2026-05-07 16:11 43.68352 6.93397 14682 ft 351 kts 331°
2026-05-07 16:12 43.70529 6.91831 15307 ft 354 kts 331°
2026-05-07 16:12 43.72720 6.90246 15937 ft 357 kts 330°
2026-05-07 16:12 43.74930 6.88646 16567 ft 360 kts 331°
2026-05-07 16:12 43.77158 6.87036 17207 ft 363 kts 330°
2026-05-07 16:13 43.79406 6.85412 17827 ft 366 kts 330°
2026-05-07 16:13 43.81677 6.83777 18412 ft 370 kts 330°
2026-05-07 16:13 43.83969 6.82126 18914 ft 373 kts 330°
2026-05-07 16:13 43.86278 6.80463 19447 ft 376 kts 330°
2026-05-07 16:14 43.88604 6.78787 19993 ft 378 kts 330°
2026-05-07 16:14 43.90946 6.77098 20516 ft 381 kts 330°
2026-05-07 16:14 43.93299 6.75395 21049 ft 383 kts 330°
2026-05-07 16:14 43.95659 6.73653 21571 ft 385 kts 328°
2026-05-07 16:15 43.97995 6.71827 22085 ft 387 kts 327°
2026-05-07 16:15 44.00327 6.69938 22604 ft 389 kts 326°
2026-05-07 16:15 44.02662 6.68020 23105 ft 391 kts 326°
2026-05-07 16:15 44.05014 6.66088 23616 ft 393 kts 326°
2026-05-07 16:16 44.07380 6.64152 24032 ft 396 kts 326°
2026-05-07 16:16 44.09761 6.62218 24441 ft 398 kts 326°
2026-05-07 16:16 44.12162 6.60279 24849 ft 400 kts 326°
2026-05-07 16:16 44.14577 6.58337 25238 ft 402 kts 326°
2026-05-07 16:17 44.17010 6.56384 25617 ft 405 kts 325°
2026-05-07 16:17 44.19452 6.54419 25987 ft 407 kts 325°
2026-05-07 16:17 44.21910 6.52435 26332 ft 409 kts 325°
2026-05-07 16:17 44.24380 6.50438 26749 ft 411 kts 325°
2026-05-07 16:18 44.26859 6.48430 27130 ft 413 kts 325°
2026-05-07 16:18 44.29354 6.46409 27541 ft 416 kts 324°
2026-05-07 16:18 44.31865 6.44373 27905 ft 419 kts 324°
2026-05-07 16:18 44.34391 6.42319 28271 ft 421 kts 324°
2026-05-07 16:19 44.36926 6.40252 28645 ft 424 kts 324°
2026-05-07 16:19 44.39483 6.38167 29016 ft 426 kts 324°
2026-05-07 16:19 44.42049 6.36075 29375 ft 429 kts 324°
2026-05-07 16:19 44.44635 6.33967 29742 ft 431 kts 324°
2026-05-07 16:20 44.47225 6.31853 30055 ft 432 kts 324°
2026-05-07 16:20 44.49832 6.29725 30330 ft 435 kts 324°
2026-05-07 16:20 44.52448 6.27590 30599 ft 436 kts 324°
2026-05-07 16:20 44.55074 6.25436 30860 ft 438 kts 324°
2026-05-07 16:21 44.57708 6.23270 31124 ft 440 kts 324°
2026-05-07 16:21 44.60309 6.21132 31495 ft 439 kts 324°
2026-05-07 16:21 44.62939 6.18973 31828 ft 438 kts 324°
2026-05-07 16:21 44.65563 6.16817 32190 ft 437 kts 324°
2026-05-07 16:22 44.68186 6.14660 32571 ft 436 kts 323°
2026-05-07 16:22 44.70801 6.12507 32936 ft 435 kts 323°
2026-05-07 16:22 44.73409 6.10358 33323 ft 434 kts 323°
2026-05-07 16:22 44.76013 6.08210 33702 ft 433 kts 323°
2026-05-07 16:23 44.78609 6.06061 33916 ft 433 kts 323°
2026-05-07 16:23 44.83718 6.01828 33961 ft 421 kts 323°
2026-05-07 16:24 44.88747 5.97645 33957 ft 418 kts 323°
2026-05-07 16:24 44.93753 5.93465 33964 ft 419 kts 323°
2026-05-07 16:25 44.98767 5.89281 33963 ft 418 kts 323°
2026-05-07 16:25 45.03780 5.85101 33963 ft 418 kts 323°
2026-05-07 16:26 45.08779 5.80906 33973 ft 417 kts 322°
2026-05-07 16:26 45.13674 5.76492 33963 ft 417 kts 321°
2026-05-07 16:27 45.18518 5.71956 33955 ft 418 kts 321°
2026-05-07 16:27 45.23393 5.67430 33954 ft 419 kts 321°
2026-05-07 16:28 45.28301 5.62923 33969 ft 420 kts 322°
2026-05-07 16:28 45.33210 5.58427 33970 ft 420 kts 322°
2026-05-07 16:29 45.38081 5.53941 33971 ft 420 kts 322°
2026-05-07 16:29 45.42981 5.49414 33970 ft 420 kts 321°
2026-05-07 16:30 45.47873 5.44873 33991 ft 420 kts 323°
2026-05-07 16:30 45.53189 5.41236 33983 ft 426 kts 331°
2026-05-07 16:31 45.58628 5.37886 33979 ft 426 kts 331°
2026-05-07 16:31 45.64032 5.34551 33976 ft 426 kts 332°
2026-05-07 16:32 45.69473 5.31186 33992 ft 426 kts 331°
2026-05-07 16:32 45.74899 5.27804 34008 ft 425 kts 331°
2026-05-07 16:33 45.80320 5.24416 34006 ft 425 kts 331°
2026-05-07 16:33 45.85739 5.21027 34023 ft 425 kts 331°
2026-05-07 16:34 45.91148 5.17645 34021 ft 424 kts 331°
2026-05-07 16:34 45.96543 5.14252 34020 ft 423 kts 331°
2026-05-07 16:35 46.01925 5.10856 34017 ft 422 kts 331°
2026-05-07 16:35 46.07304 5.07466 34025 ft 422 kts 331°
2026-05-07 16:36 46.12679 5.04059 34021 ft 421 kts 331°
2026-05-07 16:36 46.17998 5.00658 34021 ft 421 kts 331°
2026-05-07 16:37 46.23346 4.97238 34022 ft 420 kts 331°
2026-05-07 16:37 46.28691 4.93817 34033 ft 420 kts 331°
2026-05-07 16:38 46.34027 4.90396 34029 ft 419 kts 331°
2026-05-07 16:38 46.39350 4.86978 34019 ft 418 kts 331°
2026-05-07 16:39 46.44669 4.83553 34009 ft 418 kts 331°
2026-05-07 16:39 46.49977 4.80120 34022 ft 418 kts 331°
2026-05-07 16:40 46.55290 4.76678 34017 ft 418 kts 331°
2026-05-07 16:40 46.60603 4.73227 34013 ft 418 kts 331°
2026-05-07 16:41 46.65913 4.69770 34009 ft 418 kts 331°
2026-05-07 16:41 46.71224 4.66313 34006 ft 418 kts 331°
2026-05-07 16:42 46.76537 4.62851 34011 ft 418 kts 331°
2026-05-07 16:42 46.81856 4.59400 34012 ft 418 kts 331°
2026-05-07 16:43 46.87181 4.55965 34004 ft 418 kts 331°
2026-05-07 16:43 46.92503 4.52520 34007 ft 419 kts 331°
2026-05-07 16:44 46.97829 4.49066 34007 ft 419 kts 331°
2026-05-07 16:44 47.03157 4.45597 34000 ft 419 kts 331°
2026-05-07 16:45 47.08487 4.42115 33906 ft 418 kts 331°
2026-05-07 16:45 47.11124 4.40390 33639 ft 412 kts 331°
2026-05-07 16:45 47.13699 4.38700 33363 ft 409 kts 331°
2026-05-07 16:45 47.16289 4.36997 33098 ft 407 kts 331°
2026-05-07 16:46 47.18867 4.35302 32834 ft 405 kts 331°
2026-05-07 16:46 47.21422 4.33626 32450 ft 400 kts 331°
2026-05-07 16:46 47.23951 4.31967 31967 ft 397 kts 332°
2026-05-07 16:47 47.33438 4.25717 30215 ft 385 kts 332°
2026-05-07 16:47 47.35842 4.24126 29744 ft 382 kts 332°
2026-05-07 16:48 47.38252 4.22532 29315 ft 377 kts 332°
2026-05-07 16:48 47.40628 4.20958 28904 ft 372 kts 332°
2026-05-07 16:48 47.42974 4.19401 28500 ft 367 kts 332°
2026-05-07 16:49 47.48078 4.16001 27655 ft 365 kts 332°
2026-05-07 16:49 47.50403 4.14449 27279 ft 368 kts 332°
2026-05-07 16:49 47.52740 4.12894 26903 ft 368 kts 332°
2026-05-07 16:49 47.55070 4.11348 26518 ft 366 kts 332°
2026-05-07 16:50 47.57384 4.09809 26144 ft 363 kts 332°
2026-05-07 16:50 47.59678 4.08280 25776 ft 361 kts 332°
2026-05-07 16:50 47.61968 4.06750 25407 ft 359 kts 332°
2026-05-07 16:50 47.64239 4.05229 25042 ft 357 kts 332°
2026-05-07 16:51 47.66501 4.03715 24681 ft 356 kts 332°
2026-05-07 16:51 47.68755 4.02207 24320 ft 355 kts 333°
2026-05-07 16:51 47.71000 4.00703 23948 ft 352 kts 332°
2026-05-07 16:51 47.73225 3.99210 23594 ft 349 kts 332°
2026-05-07 16:52 47.75433 3.97725 23201 ft 347 kts 332°
2026-05-07 16:52 47.77599 3.96181 22844 ft 343 kts 326°
2026-05-07 16:52 47.79521 3.94130 22501 ft 338 kts 315°
2026-05-07 16:52 47.81108 3.91589 22153 ft 334 kts 304°
2026-05-07 16:53 47.82403 3.88736 21809 ft 332 kts 301°
2026-05-07 16:53 47.83674 3.85875 21466 ft 331 kts 301°
2026-05-07 16:53 47.84942 3.83033 21140 ft 329 kts 301°
2026-05-07 16:53 47.86193 3.80239 20809 ft 328 kts 301°
2026-05-07 16:54 47.87454 3.77414 20472 ft 327 kts 301°
2026-05-07 16:54 47.88705 3.74599 20154 ft 325 kts 301°
2026-05-07 16:54 47.89953 3.71792 19803 ft 324 kts 301°
2026-05-07 16:54 47.91197 3.68998 19476 ft 323 kts 301°
2026-05-07 16:55 47.92435 3.66212 19147 ft 322 kts 301°
2026-05-07 16:55 47.93664 3.63436 18820 ft 321 kts 301°
2026-05-07 16:55 47.94889 3.60659 18491 ft 320 kts 301°
2026-05-07 16:55 47.96113 3.57887 18150 ft 320 kts 302°
2026-05-07 16:56 47.97013 3.56149 17909 ft 321 kts 310°
2026-05-07 16:56 47.98573 3.53752 17490 ft 323 kts 312°
2026-05-07 16:56 48.01728 3.48971 16709 ft 322 kts 312°
2026-05-07 16:57 48.03291 3.46593 16316 ft 320 kts 312°
2026-05-07 16:57 48.04845 3.44219 15923 ft 319 kts 312°
2026-05-07 16:57 48.06393 3.41848 15535 ft 318 kts 312°
2026-05-07 16:57 48.07935 3.39484 15150 ft 317 kts 312°
2026-05-07 16:58 48.09474 3.37123 14762 ft 317 kts 312°
2026-05-07 16:58 48.11013 3.34766 14371 ft 316 kts 312°
2026-05-07 16:58 48.12548 3.32417 13991 ft 316 kts 312°
2026-05-07 16:58 48.14080 3.30068 13579 ft 315 kts 312°
2026-05-07 16:59 48.15607 3.27723 13185 ft 313 kts 312°
2026-05-07 16:59 48.17118 3.25392 12799 ft 311 kts 312°
2026-05-07 16:59 48.18620 3.23070 12424 ft 309 kts 312°
2026-05-07 16:59 48.20108 3.20777 12149 ft 303 kts 312°
2026-05-07 17:00 48.21561 3.18542 11946 ft 296 kts 312°
2026-05-07 17:00 48.22987 3.16353 11693 ft 291 kts 312°
2026-05-07 17:00 48.24396 3.14185 11358 ft 289 kts 312°
2026-05-07 17:00 48.25794 3.12028 11020 ft 288 kts 311°
2026-05-07 17:01 48.27170 3.09908 10687 ft 287 kts 312°
2026-05-07 17:01 48.28576 3.07743 10336 ft 286 kts 311°
2026-05-07 17:01 48.29937 3.05638 10072 ft 284 kts 311°
2026-05-07 17:01 48.31310 3.03507 10026 ft 285 kts 311°
2026-05-07 17:02 48.32688 3.01366 10029 ft 285 kts 311°
2026-05-07 17:02 48.34060 2.99237 9757 ft 282 kts 311°
2026-05-07 17:02 48.35417 2.97138 9413 ft 278 kts 312°
2026-05-07 17:02 48.36760 2.95056 9041 ft 277 kts 312°
2026-05-07 17:03 48.38095 2.92983 8657 ft 275 kts 312°
2026-05-07 17:03 48.39428 2.90917 8266 ft 274 kts 312°
2026-05-07 17:03 48.40749 2.88868 8033 ft 273 kts 313°
2026-05-07 17:03 48.42079 2.86799 8034 ft 276 kts 313°
2026-05-07 17:04 48.43417 2.84715 8037 ft 277 kts 312°
2026-05-07 17:04 48.44646 2.82491 8045 ft 276 kts 300°
2026-05-07 17:04 48.45430 2.79866 8044 ft 274 kts 284°
2026-05-07 17:04 48.45711 2.77042 8045 ft 273 kts 271°
2026-05-07 17:05 48.45788 2.74176 8040 ft 274 kts 271°
2026-05-07 17:05 48.45868 2.71315 8040 ft 274 kts 271°
2026-05-07 17:05 48.45948 2.68452 8017 ft 274 kts 271°
2026-05-07 17:05 48.46028 2.65589 7884 ft 273 kts 271°
2026-05-07 17:06 48.46212 2.62745 7759 ft 273 kts 279°
2026-05-07 17:06 48.46550 2.59930 7636 ft 273 kts 279°
2026-05-07 17:06 48.46884 2.57129 7507 ft 272 kts 279°
2026-05-07 17:06 48.47219 2.54316 7381 ft 271 kts 279°
2026-05-07 17:07 48.47548 2.51519 7257 ft 271 kts 279°
2026-05-07 17:07 48.47878 2.48724 7130 ft 270 kts 279°
2026-05-07 17:07 48.48205 2.45934 7009 ft 270 kts 279°
2026-05-07 17:07 48.48530 2.43148 6881 ft 270 kts 279°
2026-05-07 17:08 48.48854 2.40372 6754 ft 269 kts 279°
2026-05-07 17:08 48.49175 2.37599 6631 ft 268 kts 279°
2026-05-07 17:08 48.49495 2.34833 6506 ft 267 kts 279°
2026-05-07 17:08 48.49812 2.32067 6385 ft 268 kts 279°
2026-05-07 17:09 48.50131 2.29300 6254 ft 268 kts 279°
2026-05-07 17:09 48.50450 2.26540 6122 ft 267 kts 279°
2026-05-07 17:09 48.50768 2.23783 5989 ft 267 kts 279°
2026-05-07 17:09 48.51086 2.21020 5852 ft 267 kts 279°
2026-05-07 17:10 48.51403 2.18254 5723 ft 268 kts 279°
2026-05-07 17:10 48.51714 2.15527 5598 ft 268 kts 280°
2026-05-07 17:10 48.52026 2.12773 5469 ft 266 kts 280°
2026-05-07 17:10 48.52337 2.10030 5340 ft 265 kts 280°
2026-05-07 17:11 48.52643 2.07327 5205 ft 255 kts 280°
2026-05-07 17:11 48.52932 2.04750 5080 ft 244 kts 280°
2026-05-07 17:11 48.53248 2.02291 4947 ft 234 kts 289°
2026-05-07 17:11 48.53913 2.00116 4821 ft 226 kts 297°
2026-05-07 17:12 48.54620 1.97999 4691 ft 225 kts 297°
2026-05-07 17:12 48.55347 1.95906 4562 ft 225 kts 306°
2026-05-07 17:12 48.56551 1.94490 4426 ft 222 kts 343°
2026-05-07 17:12 48.58062 1.94488 4297 ft 221 kts 22°
2026-05-07 17:13 48.59234 1.95921 4170 ft 221 kts 58°
2026-05-07 17:13 48.59982 1.97958 4060 ft 223 kts 62°
2026-05-07 17:13 48.60705 2.00027 4003 ft 222 kts 61°
2026-05-07 17:13 48.61437 2.02080 4006 ft 223 kts 61°
2026-05-07 17:14 48.62175 2.04140 4006 ft 223 kts 61°
2026-05-07 17:14 48.62910 2.06191 3992 ft 222 kts 61°
2026-05-07 17:14 48.63636 2.08217 3795 ft 217 kts 61°
2026-05-07 17:14 48.64351 2.10219 3519 ft 214 kts 61°
2026-05-07 17:15 48.65048 2.12167 3244 ft 207 kts 61°
2026-05-07 17:15 48.65720 2.14050 2978 ft 201 kts 61°
2026-05-07 17:15 48.66375 2.15884 2720 ft 195 kts 61°
2026-05-07 17:15 48.67010 2.17666 2441 ft 190 kts 61°
2026-05-07 17:16 48.67629 2.19402 2179 ft 185 kts 61°
2026-05-07 17:16 48.68235 2.21104 1926 ft 182 kts 61°
2026-05-07 17:16 48.68826 2.22766 1705 ft 174 kts 61°
2026-05-07 17:16 48.69378 2.24316 1460 ft 162 kts 61°
2026-05-07 17:17 48.69896 2.25773 1253 ft 154 kts 61°
2026-05-07 17:17 48.70402 2.27199 1043 ft 153 kts 61°
2026-05-07 17:17 48.70905 2.28615 838 ft 152 kts 62°
2026-05-07 17:17 48.71405 2.30024 634 ft 152 kts 62°
2026-05-07 17:18 48.71904 2.31428 445 ft 151 kts 62°
2026-05-07 17:18 48.72393 2.32804 297 ft 141 kts 62°
2026-05-07 17:18 48.72807 2.33971 291 ft 103 kts 62°
2026-05-07 17:18 48.73009 2.34588 289 ft 31 kts 84°
2026-05-07 17:19 48.73022 2.34874 289 ft 24 kts 83°
2026-05-07 17:19 48.73039 2.35041 287 ft 15 kts 81°
2026-05-07 17:19 48.73024 2.35210 289 ft 18 kts 120°
2026-05-07 17:19 48.72941 2.35308 289 ft 13 kts 159°
2026-05-07 17:20 48.72882 2.35406 292 ft 14 kts 137°
2026-05-07 17:20 48.72779 2.35463 290 ft 17 kts 163°
2026-05-07 17:20 48.72677 2.35506 292 ft 13 kts 165°
2026-05-07 17:20 48.72585 2.35549 291 ft 6 kts 143°
2026-05-07 17:21 48.72553 2.35562 290 ft 5 kts 172°
2026-05-07 17:21 48.72506 2.35576 288 ft 11 kts 166°
2026-05-07 17:21 48.72463 2.35667 291 ft 13 kts 71°
2026-05-07 17:21 48.72555 2.35685 290 ft 17 kts 345°
2026-05-07 17:22 48.72662 2.35640 288 ft 17 kts 344°
2026-05-07 17:22 48.72764 2.35641 292 ft 14 kts 37°
2026-05-07 17:22 48.72792 2.35751 292 ft 4 kts 75°
2026-05-07 17:22 48.72776 2.35780 292 ft 5 kts 156°
2026-05-07 17:23 48.72754 2.35786 289 ft 2 kts 171°
2026-05-07 17:23 48.72748 2.35787 289 ft 0 kts 172°